Theta_e
322 322 321 322 320 318 318 317 313 307 307 309 307 302 301 300 298 298 297 297 299 301 302 303 305 307 308 308 309 310 310 309 308 308 308 307 305 305
322 320 320 320 318 317 317 317 316 313 309 311 306 303 300 298 297 296 296 295 297 298 299 300 302 304 306 306 308 307 308 308 307 307 306 306 305 305
320 318 318 318 317 316 316 316 315 315 310 309 303 299 297 297 296 295 294 293 294 296 297 298 299 300 303 303 306 305 305 306 305 305 304 304 304 304
318 316 316 315 315 316 315 315 314 314 311 308 300 295 295 295 295 293 292 293 291 294 295 297 297 298 299 301 303 303 303 303 302 302 303 302 302 303
317 315 315 314 313 314 314 313 310 305 304 300 298 294 293 292 289 290 289 288 290 292 294 295 295 296 298 299 301 301 300 300 300 300 300 300 300 300
315 315 315 314 313 311 310 307 303 300 297 292 289 290 290 287 287 287 286 286 286 288 290 291 292 293 294 296 297 297 298 298 299 299 298 298 298 298
311 312 311 307 302 305 305 301 300 294 289 289 287 287 287 286 286 286 285 285 286 286 285 285 285 287 289 292 293 294 295 296 296 297 297 296 296 296
307 303 302 293 297 298 298 298 299 297 290 290 288 288 288 288 286 285 285 284 285 285 284 280 282 284 285 285 291 293 294 295 295 296 296 296 296 296
304 300 296 295 293 295 295 295 294 296 296 293 289 289 287 287 286 285 285 285 285 283 282 282 281 284 282 285 291 292 293 293 294 294 294 295 295 294
302 299 296 293 293 291 290 289 288 289 291 291 290 289 289 287 287 287 286 285 284 283 284 282 277 279 280 281 290 292 292 292 292 293 293 293 293 293
294 295 294 291 291 292 288 286 286 286 291 292 292 292 292 291 288 286 284 284 282 283 283 281 278 278 278 277 279 289 289 288 288 289 289 290 291 291
287 288 288 290 291 292 288 287 286 285 286 286 286 288 289 288 290 286 285 284 284 282 281 278 277 276 275 276 277 277 278 285 287 288 288 288 288 285
287 286 286 291 291 291 290 287 287 286 287 286 285 285 285 285 285 285 285 285 284 283 284 281 277 280 280 280 277 277 277 279 281 282 285 286 287 286
287 286 285 290 291 291 288 290 290 287 286 285 285 285 284 284 285 285 285 284 285 284 285 284 281 281 280 279 278 277 278 278 278 279 279 283 285 285
287 287 289 290 290 291 290 290 286 286 285 285 285 284 283 284 283 283 283 283 283 283 284 284 283 282 281 279 278 279 280 278 278 277 278 279 280 280
288 288 288 288 288 287 287 288 286 286 285 285 284 283 283 282 282 283 281 281 281 281 283 283 283 282 280 280 280 279 278 275 277 278 278 277 279 280
286 286 285 284 283 282 283 284 284 285 284 284 283 282 282 282 281 282 279 277 274 275 276 278 280 280 281 278 278 275 276 274 278 278 277 277 277 278
285 284 283 283 282 282 282 283 283 282 283 281 282 281 280 278 278 275 275 275 274 273 274 275 275 274 275 274 282 278 272 273 276 277 273 274 276 276
285 284 283 283 283 283 282 282 282 282 282 281 280 279 277 275 276 275 277 276 277 276 276 273 269 268 272 273 272 282 276 276 276 275 274 273 274 275
285 284 284 284 283 283 282 281 280 279 279 278 277 276 277 276 274 274 274 271 272 270 266 266 267 269 267 266 271 273 281 276 274 273 272 270 273 278
284 284 284 283 282 281 279 278 278 277 276 275 275 275 273 273 271 271 269 268 266 263 262 264 268 270 267 263 262 263 268 277 275 271 271 271 269 268
284 281 281 279 278 277 276 275 273 272 272 272 271 270 269 269 269 267 264 263 262 263 263 264 266 264 261 263 262 263 265 265 271 275 276 275 270 267
278 277 276 275 275 274 273 272 272 271 270 270 268 268 267 267 266 265 262 260 259 258 257 258 260 260 260 261 260 262 260 261 263 265 265 274 275 276
Wind_Speed
12 12 11 9 7 5 6 8 8 5 4 4 5 2 3 3 4 3 3 5 10 14 16 17 20 23 23 23 26 23 22 23 24 22 20 19 21 21
10 12 11 9 6 5 6 7 7 8 6 4 5 3 2 2 3 3 3 5 8 12 14 15 18 21 22 21 24 21 24 23 23 25 22 21 23 22
12 12 12 10 8 7 6 7 8 8 9 3 2 2 3 2 1 1 3 4 3 9 11 14 17 19 19 20 22 21 21 21 23 24 22 21 24 23
14 12 13 8 11 9 8 10 9 8 7 8 3 3 3 3 2 3 3 3 4 7 10 11 14 16 18 18 18 17 18 19 20 21 20 22 23 24
13 13 13 11 11 9 9 8 6 4 3 3 3 2 2 2 2 1 2 4 3 8 9 10 12 13 14 16 16 14 15 13 16 17 15 18 21 24
12 12 12 12 12 10 9 8 5 4 3 2 2 2 2 1 1 2 2 2 2 3 5 6 8 9 13 13 14 10 10 13 17 18 17 16 21 23
10 11 10 11 11 10 7 6 6 4 2 3 2 2 2 1 2 1 2 2 2 1 0 2 2 3 4 8 7 9 12 15 15 17 19 19 22 25
10 7 6 7 8 11 9 8 8 6 5 4 3 3 4 3 2 2 2 1 1 1 1 2 3 3 3 3 11 15 18 19 20 21 22 23 24 26
10 9 7 4 7 7 8 7 5 6 4 5 5 5 4 5 5 4 4 4 3 1 1 2 2 2 3 5 12 14 15 18 19 21 22 23 23 23
10 11 11 10 7 8 8 6 5 4 4 3 5 6 5 6 5 4 3 2 1 3 2 1 1 2 3 3 9 10 12 14 16 18 20 21 22 22
7 8 10 9 13 14 9 8 6 4 5 8 8 10 10 10 7 4 3 3 2 2 3 3 2 2 2 3 2 4 5 9 12 13 15 17 20 20
5 6 10 10 16 16 10 10 9 7 7 5 4 6 6 4 10 3 3 3 2 2 2 3 1 2 4 2 1 1 2 5 9 14 15 19 19 6
6 5 4 14 15 15 11 8 6 9 9 6 4 3 2 2 0 0 2 1 1 1 3 3 1 2 2 3 2 2 1 3 6 7 12 14 16 15
8 6 6 15 16 17 12 12 15 11 7 6 5 4 3 3 2 3 1 1 1 1 3 3 2 1 1 3 3 2 3 4 2 3 3 9 12 15
7 11 16 16 16 13 15 16 13 7 7 6 6 4 3 2 3 1 1 1 2 2 3 3 3 2 3 3 4 5 9 2 2 2 2 4 5 5
15 12 13 12 10 9 6 10 6 6 6 6 5 4 4 2 2 2 2 2 2 0 1 4 4 4 2 4 4 7 4 2 3 5 3 3 4 5
11 9 8 8 7 6 5 5 5 5 6 5 6 5 4 3 3 2 2 1 2 1 1 2 2 4 5 3 5 4 5 3 5 6 5 7 3 5
9 9 8 8 8 8 7 7 6 6 6 4 5 5 4 3 3 2 1 2 2 2 1 2 2 2 2 4 11 6 2 2 3 4 3 6 8 3
8 8 8 8 8 8 8 7 6 5 6 5 4 4 4 3 3 2 1 1 1 1 2 2 2 2 1 3 4 11 6 6 7 6 2 2 8 8
8 10 10 9 8 8 8 7 7 6 5 5 5 5 4 4 3 3 2 2 2 2 2 2 3 2 2 2 3 2 9 5 4 6 6 4 6 15
8 9 9 9 8 8 7 7 8 6 5 5 5 4 4 3 3 3 3 3 3 1 1 1 1 3 2 2 4 4 3 9 9 7 7 6 7 5
9 9 8 8 7 8 8 7 7 6 6 5 5 5 4 4 4 4 3 3 2 2 2 2 3 3 3 2 2 4 3 3 7 13 15 12 5 6
9 8 8 8 7 7 7 7 7 6 6 6 5 5 5 5 4 4 4 3 3 1 1 2 3 2 1 1 1 2 4 4 3 4 3 13 14 14
Wind_Direction
214 215 217 221 216 196 199 210 228 255 235 224 224 211 172 167 178 182 221 224 249 254 260 266 265 259 253 250 257 246 247 246 253 255 247 246 251 254
217 219 221 222 207 197 204 213 217 236 255 197 219 166 165 183 158 199 229 257 251 259 262 266 269 265 260 253 261 246 250 252 255 259 257 256 257 257
211 212 216 207 212 213 206 215 223 226 242 219 146 137 164 219 224 218 236 244 253 254 266 274 277 277 270 261 258 250 253 255 259 262 263 262 263 263
207 204 215 201 209 208 206 217 222 211 223 241 157 170 192 194 189 227 234 241 249 253 263 272 275 276 274 271 260 254 252 256 266 279 268 269 275 276
205 205 210 200 210 209 211 212 206 194 187 160 176 127 147 172 209 225 257 262 245 257 272 272 278 284 282 275 264 257 251 253 269 274 267 271 273 280
201 201 200 200 209 202 207 201 176 168 155 136 163 178 154 167 106 218 263 230 275 251 256 271 274 287 289 289 288 281 257 258 266 263 264 262 269 271
192 194 196 199 194 188 179 171 165 152 152 162 171 147 144 150 195 158 250 246 255 230 99 254 250 263 262 276 275 275 276 277 278 270 263 264 266 267
190 185 170 158 156 157 145 151 171 174 180 166 163 168 170 172 143 164 192 298 302 201 227 270 174 227 248 241 258 266 270 273 272 270 270 271 269 266
181 172 158 160 146 147 149 150 173 169 156 161 172 174 165 166 151 172 200 200 208 176 114 285 215 260 239 253 267 275 281 285 283 280 279 278 278 274
176 171 165 166 167 154 151 151 152 147 172 181 172 167 158 164 178 177 193 188 170 149 135 225 319 269 277 231 266 285 301 306 304 298 295 291 288 279
153 156 161 159 166 165 149 149 154 161 154 155 163 163 167 173 157 133 207 187 175 153 158 154 258 259 300 333 328 17 348 330 324 325 320 312 303 297
133 141 160 160 164 164 157 161 167 171 157 125 122 115 101 116 162 207 191 193 150 153 203 126 7 50 352 301 291 299 315 310 323 318 325 325 324 318
155 158 157 160 162 166 164 170 168 140 146 120 114 106 92 95 36 248 266 251 170 121 161 105 128 129 169 287 300 311 359 316 318 310 317 326 327 328
164 159 157 163 164 168 165 162 147 131 134 138 145 146 146 151 166 162 223 276 33 83 134 125 152 133 257 275 267 321 327 285 267 296 307 318 322 320
152 158 158 163 170 167 166 168 145 144 144 149 153 135 143 150 161 192 227 216 138 207 200 174 182 203 198 254 293 306 320 283 259 236 270 293 294 303
150 151 156 153 142 133 150 161 154 150 146 145 139 131 127 162 173 185 181 183 120 319 209 204 201 184 223 230 252 281 276 285 291 293 273 256 265 264
142 143 151 154 146 153 151 140 140 141 143 138 145 153 158 172 162 185 179 155 136 189 260 287 258 208 217 212 275 256 278 273 282 292 307 301 272 263
152 160 161 159 159 168 162 155 155 153 154 145 149 147 159 167 156 210 156 139 155 211 234 275 291 344 354 303 228 268 271 269 283 277 267 299 308 310
165 167 168 165 162 161 156 161 158 143 126 146 151 143 156 152 155 170 189 147 84 55 42 310 13 93 308 288 294 44 2 311 307 316 293 305 308 317
176 166 163 163 163 159 160 157 139 135 137 143 133 132 140 145 139 139 128 146 131 93 324 320 66 64 112 228 297 265 315 354 350 329 322 286 268 299
172 165 156 149 148 147 148 138 142 144 144 136 135 146 147 130 119 109 110 99 102 120 212 269 267 317 258 10 18 319 302 341 337 320 314 311 325 308
163 148 137 128 130 139 137 139 133 138 148 148 155 153 138 137 140 138 134 129 152 186 226 309 330 6 38 107 266 294 307 313 322 319 318 317 316 318
136 130 130 131 136 138 141 146 147 152 157 160 159 148 143 139 129 130 134 142 148 142 200 302 325 8 348 211 267 302 311 308 308 310 297 323 319 311